Tiempo cada hora Cazin

Hoy, 20 Abril, Martes

Tiempo Temperatura Precipitaciones Viento Presión Humedad
00:00 +5°C° 0.2 mm 1 mps 724 mmHg 98%
01:00 +5°C° 0 mm 1 mps 723 mmHg 97%
02:00 +5°C° 0.1 mm 1 mps 723 mmHg 98%
03:00 +5°C° 0.1 mm 1 mps 723 mmHg 98%
04:00 +5°C° 0.1 mm 1 mps 723 mmHg 98%
05:00 +5°C° 0.1 mm 1 mps 724 mmHg 97%
06:00 +6°C° 0.1 mm 1 mps 724 mmHg 96%
07:00 +6°C° 0.1 mm 1 mps 724 mmHg 94%
08:00 +7°C° 0 mm 1 mps 724 mmHg 91%
09:00 +7°C° 0 mm 1 mps 724 mmHg 87%
10:00 +8°C° 0 mm 1 mps 724 mmHg 84%
11:00 +9°C° 0.1 mm 1 mps 724 mmHg 77%
12:00 +11°C° 0.1 mm 1 mps 724 mmHg 71%
13:00 +12°C° 0.1 mm 1 mps 724 mmHg 64%
14:00 +12°C° 0.2 mm 1 mps 724 mmHg 64%
15:00 +12°C° 0.2 mm 1 mps 723 mmHg 63%
16:00 +12°C° 0.2 mm 1 mps 723 mmHg 63%
17:00 +11°C° 0.1 mm 1 mps 723 mmHg 71%
18:00 +9°C° 0.1 mm 1 mps 724 mmHg 80%
19:00 +6°C° 0.1 mm 0 mps 724 mmHg 88%
20:00 +7°C° 0 mm 1 mps 724 mmHg 89%
21:00 +6°C° 0 mm 1 mps 724 mmHg 90%
22:00 +6°C° 0 mm 1 mps 725 mmHg 91%
23:00 +5°C° 0 mm 1 mps 725 mmHg 92%

Mañana, 21 Abril, Miércoles

Tiempo Temperatura Precipitaciones Viento Presión Humedad
00:00 +5°C° 0 mm 1 mps 725 mmHg 92%
01:00 +5°C° 0 mm 1 mps 725 mmHg 92%
02:00 +5°C° 0 mm 1 mps 725 mmHg 93%
03:00 +4°C° 0 mm 1 mps 725 mmHg 93%
04:00 +4°C° 0 mm 1 mps 725 mmHg 93%
05:00 +5°C° 0 mm 1 mps 725 mmHg 90%
06:00 +7°C° 0 mm 1 mps 725 mmHg 86%
07:00 +8°C° 0 mm 1 mps 726 mmHg 83%
08:00 +9°C° 0 mm 2 mps 726 mmHg 74%
09:00 +12°C° 0 mm 2 mps 726 mmHg 65%
10:00 +14°C° 0 mm 2 mps 726 mmHg 57%
11:00 +15°C° 0.2 mm 2 mps 726 mmHg 54%
12:00 +16°C° 0.2 mm 3 mps 726 mmHg 52%
13:00 +16°C° 0.2 mm 3 mps 726 mmHg 49%
14:00 +16°C° 0.1 mm 3 mps 726 mmHg 52%
15:00 +14°C° 0.1 mm 3 mps 725 mmHg 54%
16:00 +14°C° 0.1 mm 3 mps 725 mmHg 56%
17:00 +12°C° 0 mm 3 mps 725 mmHg 64%
18:00 +10°C° 0 mm 3 mps 725 mmHg 71%
19:00 +8°C° 0 mm 2 mps 725 mmHg 79%
20:00 +7°C° 0 mm 2 mps 726 mmHg 83%
21:00 +7°C° 0 mm 2 mps 726 mmHg 86%
22:00 +6°C° 0 mm 2 mps 726 mmHg 90%
23:00 +6°C° 0 mm 2 mps 726 mmHg 90%

Pasado mañana, 22 Abril, Jueves

Tiempo Temperatura Precipitaciones Viento Presión Humedad
00:00 +5°C° 0 mm 2 mps 726 mmHg 90%
01:00 +5°C° 0 mm 2 mps 726 mmHg 90%
02:00 +5°C° 0 mm 2 mps 726 mmHg 90%
03:00 +5°C° 0 mm 2 mps 726 mmHg 90%
04:00 +5°C° 0 mm 2 mps 726 mmHg 89%
05:00 +6°C° 0 mm 2 mps 726 mmHg 84%
06:00 +7°C° 0 mm 2 mps 726 mmHg 79%
07:00 +8°C° 0 mm 2 mps 726 mmHg 74%
08:00 +10°C° 0 mm 2 mps 726 mmHg 67%
09:00 +13°C° 0 mm 2 mps 726 mmHg 60%
10:00 +14°C° 0 mm 3 mps 726 mmHg 54%
11:00 +14°C° 0.1 mm 3 mps 726 mmHg 54%
12:00 +14°C° 0.1 mm 3 mps 726 mmHg 55%
13:00 +16°C° 0.1 mm 3 mps 726 mmHg 55%
14:00 +16°C° 0.1 mm 3 mps 725 mmHg 56%
15:00 +16°C° 0.1 mm 3 mps 725 mmHg 56%
16:00 +16°C° 0.1 mm 3 mps 725 mmHg 57%
17:00 +13°C° 0 mm 3 mps 725 mmHg 65%
18:00 +12°C° 0 mm 2 mps 725 mmHg 74%
19:00 +10°C° 0 mm 1 mps 726 mmHg 82%
20:00 +9°C° 0.1 mm 1 mps 726 mmHg 85%
21:00 +9°C° 0.1 mm 1 mps 727 mmHg 88%
22:00 +8°C° 0.1 mm 1 mps 728 mmHg 91%
23:00 +8°C° 0.3 mm 1 mps 728 mmHg 93%

23 Abril, Viernes

Tiempo Temperatura Precipitaciones Viento Presión Humedad
00:00 +8°C° 0.3 mm 1 mps 728 mmHg 94%
01:00 +7°C° 0.3 mm 1 mps 728 mmHg 96%
02:00 +6°C° 0.3 mm 2 mps 728 mmHg 95%
03:00 +5°C° 0.3 mm 2 mps 729 mmHg 95%
04:00 +5°C° 0.3 mm 2 mps 729 mmHg 94%
05:00 +5°C° 0.1 mm 2 mps 729 mmHg 94%
06:00 +5°C° 0.1 mm 2 mps 730 mmHg 94%
07:00 +6°C° 0.1 mm 1 mps 730 mmHg 94%
08:00 +5°C° 0 mm 2 mps 730 mmHg 89%
09:00 +6°C° 0 mm 2 mps 730 mmHg 84%
10:00 +7°C° 0 mm 2 mps 730 mmHg 79%
11:00 +8°C° 0 mm 2 mps 730 mmHg 73%
12:00 +10°C° 0 mm 2 mps 730 mmHg 67%
13:00 +12°C° 0 mm 2 mps 730 mmHg 60%
14:00 +12°C° 0 mm 2 mps 729 mmHg 59%
15:00 +13°C° 0 mm 2 mps 729 mmHg 58%
16:00 +13°C° 0 mm 2 mps 729 mmHg 56%
17:00 +12°C° 0 mm 2 mps 729 mmHg 62%
18:00 +10°C° 0 mm 2 mps 729 mmHg 68%
19:00 +10°C° 0 mm 1 mps 729 mmHg 74%
20:00 +9°C° 0 mm 1 mps 729 mmHg 78%
21:00 +7°C° 0 mm 1 mps 730 mmHg 83%
22:00 +6°C° 0 mm 1 mps 730 mmHg 88%
23:00 +6°C° 0 mm 1 mps 730 mmHg 89%

24 Abril, Sábado

Tiempo Temperatura Precipitaciones Viento Presión Humedad
00:00 +5°C° 0 mm 1 mps 730 mmHg 91%
01:00 +4°C° 0 mm 0 mps 730 mmHg 93%
02:00 +3°C° 0 mm 0 mps 730 mmHg 94%
03:00 +4°C° 0 mm 1 mps 730 mmHg 94%
04:00 +4°C° 0 mm 1 mps 730 mmHg 95%
05:00 +5°C° 0 mm 1 mps 730 mmHg 91%
06:00 +6°C° 0 mm 1 mps 731 mmHg 87%
07:00 +7°C° 0 mm 1 mps 731 mmHg 83%
08:00 +8°C° 0 mm 2 mps 730 mmHg 74%
09:00 +10°C° 0 mm 2 mps 730 mmHg 65%
10:00 +11°C° 0 mm 3 mps 730 mmHg 56%
11:00 +12°C° 0 mm 3 mps 729 mmHg 52%
12:00 +13°C° 0 mm 3 mps 729 mmHg 48%
13:00 +14°C° 0 mm 3 mps 728 mmHg 45%
14:00 +14°C° 0 mm 3 mps 728 mmHg 45%
15:00 +14°C° 0 mm 3 mps 728 mmHg 46%
16:00 +14°C° 0 mm 3 mps 727 mmHg 46%
17:00 +13°C° 0 mm 2 mps 727 mmHg 56%
18:00 +10°C° 0 mm 2 mps 727 mmHg 65%
19:00 +9°C° 0 mm 1 mps 727 mmHg 74%
20:00 +8°C° 0 mm 1 mps 728 mmHg 77%
21:00 +7°C° 0 mm 1 mps 728 mmHg 79%
22:00 +6°C° 0 mm 1 mps 728 mmHg 81%
23:00 +5°C° 0 mm 0 mps 728 mmHg 82%

25 Abril, Domingo

Tiempo Temperatura Precipitaciones Viento Presión Humedad
00:00 +4°C° 0 mm 0 mps 728 mmHg 83%
01:00 +4°C° 0 mm 0 mps 728 mmHg 84%
02:00 +4°C° 0 mm 0 mps 728 mmHg 85%
03:00 +3°C° 0 mm 0 mps 727 mmHg 85%
04:00 +3°C° 0 mm 0 mps 727 mmHg 85%
05:00 +5°C° 0 mm 0 mps 727 mmHg 79%
06:00 +6°C° 0 mm 0 mps 728 mmHg 73%
07:00 +8°C° 0 mm 0 mps 728 mmHg 67%
08:00 +11°C° 0 mm 1 mps 728 mmHg 61%
09:00 +12°C° 0 mm 1 mps 728 mmHg 54%
10:00 +14°C° 0 mm 2 mps 728 mmHg 48%
11:00 +15°C° 0 mm 2 mps 727 mmHg 47%
12:00 +16°C° 0 mm 2 mps 727 mmHg 45%
13:00 +17°C° 0 mm 2 mps 727 mmHg 43%
14:00 +17°C° 0 mm 2 mps 726 mmHg 44%
15:00 +17°C° 0 mm 2 mps 726 mmHg 45%
16:00 +17°C° 0 mm 3 mps 726 mmHg 47%
17:00 +15°C° 0 mm 2 mps 726 mmHg 59%
18:00 +12°C° 0 mm 2 mps 726 mmHg 71%
19:00 +9°C° 0 mm 2 mps 726 mmHg 83%
20:00 +9°C° 0 mm 1 mps 727 mmHg 86%
21:00 +8°C° 0 mm 1 mps 727 mmHg 89%
22:00 +8°C° 0 mm 1 mps 727 mmHg 92%
23:00 +7°C° 0 mm 1 mps 727 mmHg 93%
Mostrar más

Necesitamos Su Consentimiento

Meteoprog y nuestros Proveedores de Servicios pueden almacenar y acceder a sus datos personales como cookies, identificadores de dispositivo u otras tecnologías similares de su dispositivo y procesar dichos datos para personalizar contenido y anuncios, además de ofrecer funciones de redes sociales y analizar el tráfico.

  • Almacenar y/o acceder a información en su dispositivo

    Se puede almacenar o acceder a cookies, identificadores de dispositivo u otra información de su dispositivo para los fines anteriormente indicados.

  • Anuncios y contenido personalizados, medición de anuncios y contenido, percepciones del público, y desarrollo de productos

    Los anuncios y el contenido pueden personalizarse en base a su perfil. Se pueden añadir más datos para personalizar mejor los anuncios y contenidos. Se puede medir el rendimiento de los anuncios y contenidos. Se puede obtener la percepción sobre el público que ha visto los anuncios y contenidos. Dichos datos pueden usarse para desarrollar o mejorar la experiencia del usuario, sistemas y software.

Al hacer clic en ‘Estoy De Acuerdo’ usted permitirá el uso de las cookies, identificadores de dispositivo, balizas web u otras tecnologías similares indicadas. Su configuración puede cambiarse desde el navegador de su dispositivo.

Para ciertos fines, los intereses legítimos pueden ser considerados por encima del consentimiento. Puede leer más sobre ello en nuestra Política de Privacidad y Cookies.